Powrót do katalogu

DELTA 1 DEB

AktywnySSO
NORAD 40756·DEBRIS·🇺🇸 United States

Wystrzelony Jul 29, 1976 z Vandenberg Space Force Base

Loading…

Następne Przeloty (najbliższe 24 godziny)

TLE

ŚwieżeSource: Space-Track

Epoka: Sep 13, 2026, 04:31 UTC

1 40756U 76077FZ  26256.18834434 -.00000049  00000-0 -25216-4 0  9990
2 40756 102.5818 241.6706 0077050 220.5992 153.2342 12.25958732967324

Śledź DELTA 1 DEB w czasie rzeczywistym z AllMySat

Download on the App Store